Location: Davidschlag
(48.4333°N, 14.2833°E)
Time: 06:42:52
(UTC+00:00)

Gbstr 26 Del rocket - Pass Details

Date: 27 February 2020
Orbit: 493 x 1264 km, 51.8° (Epoch: 09 April)

Event Time Altitude Azimuth Distance (km) Brightness Sun altitude
Rises 17:09:08 0° 216° (SW) 2,599 7.0 -5.2°
Reaches altitude 10° 17:11:19 10° 207° (SSW) 1,763 5.9 -5.5°
Maximum altitude 17:14:56 35° 140° (SE) 927 3.7 -6.1°
Drops below altitude 10° 17:19:06 10° 75° (ENE) 2,047 5.1 -6.8°
Enters shadow 17:19:36 - 73° (ENE) 2,237 5.3 -6.9°
